Starlink 31330

operational
NORAD ID: 58951 Int'l Des: 2024-027 Owner: SPXS Country: US Constellation: starlink
LEOCIRCULAR

About Starlink 31330

Description loading...

Live Position

Loading 3D Globe...

Upcoming Passes

Altitude History

Altitude vs Time

uPlot chart will show altitude changes over time

Two-Line Element Set

1 58951U 24027W 25353.32574508 .00000112 00000-0 15902-4 0 9990
2 58951 53.1624 320.1253 0001343 79.9865 280.1287 15.30187923105061
Epoch: Dec 19, 2025 • Age: 23 hours

Current Status

Altitude 475.5 km
Velocity 7.63 km/s
Sub-Earth Point 6.60°N, 55.97°W
Launch Date Feb 10, 2024
Age 1.8 years
Type internet

Technical Details

Classification Payload
Mass 730.00 kg
Dry Mass 700.00 kg
Total Mass 730.00 kg
Length 0.30 m
Diameter 4.10 m
Span 29.00 m
Shape Box + pan
Manufacturer SPXS
Bus Type Starlink V2M
Phase Status In Orbit
Owner/State SPXS/US

Large Constellations

Loading constellations...